Temp
39 39 39 36 30 37 35 36 39 40 40 39 38 38 38 37 37 36 36 36 35 36 36 35 34 33 33 32 30 29 28 27 26 26 26 23 23 23 23 23 24 25 24 24
39 38 40 39 40 39 40 39 38 38 40 39 39 39 40 38 37 37 37 36 36 36 36 36 34 34 33 32 31 29 28 27 26 26 27 26 24 23 24 25 25 25 24 24
38 39 39 39 39 39 40 38 33 35 39 40 39 37 36 39 38 38 38 38 38 37 37 36 36 35 34 33 31 30 28 27 26 26 27 26 25 24 24 24 24 24 25 24
39 40 38 38 38 39 37 38 39 39 38 31 32 27 30 39 38 38 38 38 38 38 37 37 36 35 35 33 32 30 29 27 26 26 27 27 25 24 24 24 26 26 25 24
38 38 38 38 38 39 36 38 39 39 39 35 35 36 37 40 38 38 38 39 38 38 38 38 37 36 35 34 33 31 29 27 27 26 26 27 25 27 25 26 25 24 24 24
39 41 39 39 40 39 40 39 39 40 39 37 37 37 37 33 39 39 39 40 39 39 39 38 37 36 36 35 34 32 29 27 26 26 25 25 27 26 26 25 25 25 25 25
38 38 38 40 38 39 39 39 37 35 37 35 39 39 36 38 39 39 38 39 40 39 38 39 38 37 36 35 34 32 29 27 26 26 26 25 25 25 26 25 26 26 25 26
37 36 38 40 39 38 39 39 37 33 34 28 36 38 38 40 39 38 38 38 38 40 39 39 38 37 36 35 33 31 29 28 27 27 26 26 26 26 25 25 25 25 24 25
38 37 40 40 40 39 37 37 40 32 30 34 36 37 40 39 38 38 37 37 37 38 38 37 37 36 34 33 31 30 29 28 28 28 27 26 26 25 26 26 25 25 25 25
39 37 40 40 40 40 39 39 37 39 35 34 36 34 36 38 37 37 37 36 35 34 34 33 34 33 32 32 31 29 28 27 28 27 27 25 24 23 23 24 23 24 24 24
39 39 39 39 38 38 38 38 39 38 37 34 35 35 34 37 37 37 36 36 34 34 33 33 33 32 31 31 30 30 28 24 23 21 22 21 21 21 21 21 21 22 22 22
39 39 38 38 40 40 40 39 40 38 37 39 39 36 39 38 37 36 35 35 34 33 33 33 32 31 30 29 27 25 24 23 22 21 21 22 21 21 21 20 21 21 21 21
38 37 37 38 39 40 38 39 40 40 40 38 34 36 39 37 35 35 33 33 32 32 31 32 32 30 29 27 26 24 24 24 23 23 23 22 21 20 19 20 20 20 20 20
37 38 38 37 38 39 38 39 39 40 39 39 29 27 34 36 34 33 32 32 31 30 30 30 30 28 27 25 25 25 24 24 23 23 23 22 21 20 19 20 20 20 20 20
38 36 38 39 39 39 37 39 39 39 39 37 31 31 31 35 35 33 33 32 31 31 30 30 29 28 27 26 26 25 25 24 24 24 24 22 22 22 21 21 21 20 19 19
38 36 37 37 39 39 38 39 39 39 39 39 38 38 40 38 35 33 33 32 32 31 31 30 29 28 27 27 26 26 24 24 24 24 22 21 21 21 21 20 20 20 19 18
37 37 37 36 38 38 37 38 39 39 39 39 37 37 38 36 35 34 33 33 32 32 31 30 30 29 28 27 26 24 23 22 21 21 21 21 21 19 19 19 19 18 18 18
37 37 37 37 37 35 39 41 39 39 39 39 39 38 37 36 36 35 35 33 32 31 30 30 30 28 27 27 26 25 23 22 20 20 20 19 19 19 18 18 18 17 17 17
39 38 37 36 36 37 39 39 39 38 38 40 38 37 37 36 36 34 35 34 33 31 31 30 29 28 27 26 24 23 23 22 21 20 19 18 18 18 17 17 16 16 16 17
39 39 38 37 35 34 38 40 41 40 37 39 38 37 36 35 34 34 33 33 32 30 30 29 27 26 25 24 24 23 23 22 21 19 18 17 17 17 17 16 16 16 16 17
36 37 36 37 32 37 34 34 39 36 36 38 38 37 36 34 35 33 33 31 30 29 28 26 25 25 23 23 23 23 22 21 19 18 18 17 16 17 16 15 15 15 16 15
35 35 36 37 33 31 32 37 36 36 37 38 37 37 36 34 32 32 31 30 29 27 25 26 24 23 22 22 22 21 20 18 17 17 17 16 16 16 16 15 15 15 16 17
34 35 34 33 31 24 25 34 38 39 37 37 37 37 34 32 31 30 29 28 27 26 25 25 23 22 21 20 21 21 18 17 17 17 17 16 16 16 15 15 16 17 18 18
34 34 34 34 33 35 36 36 37 37 37 37 37 36 34 32 30 29 28 27 26 25 24 24 23 22 20 19 19 18 17 17 17 17 17 17 17 17 16 17 17 18 18 18
34 33 33 33 35 34 35 35 35 35 36 36 35 34 33 31 30 28 27 26 25 24 23 22 22 21 19 18 18 17 17 16 17 17 17 17 18 18 17 17 18 17 17 16
34 33 32 33 34 34 34 34 34 34 34 33 33 32 31 30 28 28 26 25 24 23 21 21 20 19 19 18 17 17 16 15 15 16 18 18 17 18 18 18 18 18 17 16
Height
726 737 739 747 760 745 753 751 738 727 719 734 735 733 731 737 739 743 746 748 752 752 754 759 766 770 775 781 787 793 797 800 803 806 806 810 812 813 814 814 814 814 817 818
732 743 720 726 725 730 727 733 744 734 722 731 730 731 721 728 735 735 742 745 744 746 747 753 760 765 769 777 784 789 793 797 800 802 804 804 807 809 811 811 811 813 814 815
739 726 720 725 731 737 728 740 772 770 729 723 734 749 743 721 725 729 733 734 735 740 743 748 754 759 764 769 778 784 789 794 797 800 801 803 805 807 808 808 809 810 811 811
727 715 731 733 737 727 752 733 733 738 744 797 767 829 779 725 729 728 728 730 731 733 738 742 749 754 758 765 772 779 784 789 793 796 797 799 802 804 805 806 804 807 808 809
732 727 738 737 734 723 759 732 733 729 737 755 760 770 744 719 727 725 723 721 723 725 730 735 742 748 753 759 765 773 780 785 787 791 793 795 798 798 800 802 802 805 805 805
719 702 716 723 715 723 717 730 728 726 731 759 750 751 748 772 724 721 713 712 714 720 724 732 738 744 750 755 761 768 776 781 785 788 790 792 793 796 797 799 801 802 801 801
731 728 719 711 733 723 727 737 760 777 760 779 731 739 751 723 716 715 719 712 709 712 722 726 734 739 746 751 758 765 773 780 781 785 787 789 792 794 795 797 797 796 799 797
746 755 727 711 724 734 728 730 755 799 787 818 747 749 733 709 709 711 713 713 715 711 716 724 728 736 742 750 756 765 771 776 779 780 783 786 788 788 791 793 792 793 794 794
735 739 701 706 707 717 738 745 713 776 791 773 755 739 712 710 715 716 720 722 723 718 718 727 731 738 746 754 760 765 770 774 775 777 781 784 785 787 786 787 789 789 789 792
711 735 704 702 703 705 719 723 749 729 777 784 754 764 752 728 727 724 726 728 730 732 737 741 743 750 755 757 762 766 770 773 774 776 777 781 782 784 785 786 787 786 788 790
702 713 715 707 720 728 729 735 726 736 747 781 778 760 741 720 721 725 725 728 734 737 741 745 749 754 757 759 763 765 770 775 777 776 778 782 785 785 786 787 789 787 783 793
702 708 726 722 703 701 705 719 716 735 746 729 731 751 703 709 716 722 727 730 735 740 744 747 752 756 760 765 770 773 777 780 780 781 782 784 784 786 787 786 787 788 786 788
705 720 732 726 714 703 717 713 706 704 705 730 763 748 698 708 721 726 735 737 742 745 747 748 752 758 763 768 773 777 779 780 780 781 783 785 786 786 786 786 787 785 784 788
700 708 714 730 719 704 723 713 707 705 725 719 772 776 741 724 729 731 738 740 744 748 751 752 756 761 767 772 775 777 779 780 781 783 784 785 786 787 787 787 785 787 785 786
704 724 709 699 701 704 717 709 706 714 710 729 749 758 747 721 725 728 733 738 744 748 750 754 757 762 767 771 774 776 778 780 782 783 784 786 786 787 788 787 786 787 785 787
699 724 711 715 700 704 715 704 703 703 705 707 711 715 692 703 716 728 734 738 743 747 749 753 758 762 766 769 772 775 778 780 781 782 785 787 788 788 788 789 789 788 788 789
707 712 721 732 706 709 731 709 701 699 699 703 722 713 703 712 721 727 731 736 741 744 748 752 756 760 763 767 771 775 779 781 784 786 787 788 788 790 791 791 791 790 791 791
700 706 708 721 713 750 700 674 686 692 691 691 697 700 706 712 715 720 724 732 738 744 749 752 755 761 765 767 772 776 780 782 785 787 789 789 790 792 793 793 793 793 793 792
675 693 709 724 724 710 693 686 693 701 704 683 696 701 703 709 715 726 722 728 735 743 748 752 758 762 767 771 775 778 781 785 787 789 791 792 792 793 794 794 794 793 792 790
674 675 698 705 725 741 693 668 666 675 716 682 691 701 709 716 738 729 726 730 738 745 749 755 761 768 771 775 777 779 782 785 788 792 793 793 794 794 795 795 794 793 791 789
695 693 706 705 732 702 687 704 676 725 719 686 689 696 709 723 718 720 726 735 743 748 754 761 765 769 774 777 778 781 783 787 791 793 794 794 794 794 794 794 793 791 789 789
695 706 700 696 720 744 694 687 705 692 685 688 693 697 704 714 722 727 734 741 748 755 761 764 769 774 777 779 781 783 786 790 792 793 794 794 793 793 793 793 792 790 788 786
706 691 704 705 721 725 706 692 676 675 689 693 695 697 706 718 729 735 741 747 755 759 763 767 772 777 781 783 784 785 790 791 792 792 792 792 792 792 791 790 789 786 783 781
690 688 698 700 698 690 682 679 682 682 687 690 693 699 710 720 729 738 746 751 756 762 766 770 774 778 782 785 786 788 790 791 792 792 792 791 790 789 789 787 785 782 781 780
691 697 700 703 692 693 686 684 689 689 690 693 699 706 713 722 731 739 747 753 759 765 769 773 776 779 783 786 788 789 791 791 791 790 790 789 787 785 785 783 781 780 780 779
689 699 708 704 684 688 685 689 690 694 697 701 706 712 720 727 734 741 749 756 762 767 772 776 779 782 785 787 789 791 792 792 792 791 787 785 786 783 780 778 776 775 773 772
Wind_Speed
16 16 15 11 11 13 15 25 15 7 11 3 7 4 17 15 13 14 15 16 17 16 17 20 21 20 19 17 18 18 16 15 16 16 16 15 16 15 15 16 16 13 13 12
17 16 7 13 10 11 10 5 10 14 4 5 5 5 7 17 16 15 14 14 16 16 17 17 21 20 20 18 16 18 18 17 18 15 13 14 14 13 12 12 11 11 12 12
21 13 16 7 9 11 11 8 11 16 12 7 10 11 13 14 16 14 15 15 16 16 16 16 16 19 19 19 19 19 19 18 18 16 12 9 8 9 8 9 10 11 13 13
17 9 12 11 12 13 4 18 10 5 3 5 14 5 18 14 16 16 16 17 16 16 16 15 16 17 19 16 16 18 19 20 19 17 15 13 11 10 9 10 10 7 11 13
22 15 15 11 18 8 12 13 10 12 11 11 3 2 13 10 18 18 17 19 18 17 18 16 16 18 15 18 17 17 18 20 19 19 18 14 13 13 11 10 7 6 8 12
22 13 19 16 19 14 7 10 13 13 13 4 11 16 16 5 4 6 6 16 19 18 16 15 15 16 15 13 13 16 18 19 17 18 17 16 13 10 7 6 6 9 13 9
20 18 24 12 11 15 11 16 10 6 10 5 7 9 7 4 8 7 5 5 13 18 15 16 15 14 14 14 13 13 15 15 16 17 16 15 14 12 12 11 12 9 6 9
17 18 25 16 17 11 11 15 7 0 5 2 21 4 12 13 11 8 6 5 4 11 17 14 13 14 12 9 10 11 11 14 16 16 16 15 15 15 12 13 13 11 12 12
16 18 19 20 16 19 14 16 15 14 14 15 10 5 6 13 12 10 10 8 5 3 5 6 3 5 6 7 7 9 10 12 14 15 14 14 14 13 11 11 9 12 13 13
19 14 19 23 17 15 15 13 14 6 4 7 7 7 9 14 11 11 11 11 10 10 7 6 5 6 4 6 7 5 6 8 7 10 6 5 5 6 6 7 10 10 10 12
21 12 16 13 16 15 11 14 16 16 6 7 11 11 20 13 12 12 12 12 12 11 10 9 7 8 6 5 4 7 5 9 6 8 6 3 1 2 1 2 6 5 2 9
19 8 11 16 14 19 18 14 18 12 14 10 9 10 10 13 10 10 13 12 12 11 10 9 9 9 7 10 8 11 10 7 6 6 6 4 2 1 2 5 7 4 1 6
15 10 12 15 17 11 10 20 14 15 14 7 8 2 10 13 13 12 12 12 10 10 9 8 8 9 9 9 10 10 10 9 8 8 8 8 6 4 1 4 10 8 14 17
15 17 16 11 15 15 19 19 17 14 11 7 6 7 23 10 13 14 12 12 12 10 9 8 8 9 9 9 10 9 8 7 7 8 7 4 3 6 5 4 3 2 4 6
16 19 19 14 4 8 6 17 13 11 14 9 16 28 31 16 15 15 14 13 12 12 11 9 9 8 9 8 7 5 4 3 5 4 3 7 6 6 6 7 7 6 5 4
17 18 17 20 12 11 10 10 11 11 12 11 8 12 15 15 14 13 13 13 13 12 11 11 9 8 8 8 7 5 1 2 3 3 5 6 6 5 7 7 7 7 6 4
20 16 16 19 17 11 15 15 13 10 8 6 9 9 7 13 14 14 14 13 13 13 12 12 10 9 11 11 8 7 7 7 5 4 4 5 6 7 6 6 6 5 5 3
18 19 18 15 14 20 13 15 8 10 5 4 5 5 4 10 13 11 11 12 13 13 12 11 11 12 11 11 10 9 9 9 8 6 5 5 5 5 5 5 4 3 3 4
16 15 14 14 15 13 19 6 11 13 7 12 5 9 9 11 12 10 11 12 13 13 11 10 11 10 9 9 8 7 7 6 5 4 3 3 4 4 4 5 5 5 6 6
17 16 15 12 14 17 14 17 10 4 9 11 4 12 10 12 10 11 13 13 14 14 13 12 12 10 9 7 7 6 5 3 3 2 2 3 3 4 4 4 4 5 6 6
14 12 15 15 3 16 13 7 13 9 4 9 5 12 11 11 5 16 15 13 15 14 14 13 11 9 7 5 4 4 4 4 2 1 2 2 3 2 3 5 5 7 7 8
12 13 13 16 12 6 15 9 10 9 10 9 9 9 9 12 12 14 14 14 13 13 14 12 12 10 8 5 4 4 4 2 1 0 1 2 4 4 5 7 8 9 8 10
2 8 4 3 7 9 13 25 8 12 10 8 8 9 14 12 12 13 13 13 12 14 12 12 12 10 7 5 2 2 2 0 1 1 3 4 6 6 9 10 11 12 11 13
2 7 4 1 8 11 12 8 6 3 11 7 7 11 12 13 15 14 13 12 11 13 12 10 10 8 6 4 4 4 2 1 1 3 5 7 9 9 11 11 13 12 13 14
4 4 6 6 3 4 5 6 8 7 7 8 9 10 12 15 15 15 13 12 13 13 11 8 7 6 5 4 4 4 2 2 4 6 8 9 10 9 12 15 13 15 15 15
8 2 5 5 3 7 10 7 8 8 9 10 11 12 12 14 15 15 13 14 14 12 10 8 6 6 5 5 4 2 2 4 6 8 9 9 12 14 15 16 17 16 17 17
Wind_Direction
207 240 231 51 72 221 223 256 194 179 109 240 230 239 151 178 193 176 182 179 186 199 190 195 196 197 197 201 188 202 202 198 206 211 207 209 220 228 231 236 231 227 233 235
225 239 321 177 209 278 242 258 28 1 96 252 263 243 167 169 194 182 193 186 192 198 191 198 192 201 201 194 208 202 209 203 207 213 227 212 210 227 233 239 241 227 235 236
227 214 169 216 235 247 242 113 108 249 241 225 312 346 315 175 184 194 186 197 201 196 201 185 198 201 204 198 193 207 206 206 209 217 215 221 228 237 234 242 243 229 230 233
234 174 243 220 256 265 36 309 283 252 261 121 272 165 271 191 177 188 199 195 203 196 200 182 196 202 199 196 201 201 203 201 208 209 222 216 224 234 237 231 227 216 228 234
228 186 231 221 242 311 151 215 286 301 276 155 236 118 199 203 175 177 202 201 205 199 189 201 193 193 214 193 197 196 200 200 203 203 214 212 218 229 220 238 159 205 228 230
253 227 201 244 232 192 317 266 247 249 244 256 226 219 79 257 35 113 197 200 201 197 202 193 199 196 200 207 191 191 194 196 201 205 213 217 226 225 234 221 222 232 236 208
220 238 269 204 220 257 244 257 260 286 243 345 210 276 113 164 98 102 147 185 205 192 207 193 199 204 203 210 197 193 186 200 197 207 214 218 228 230 227 223 226 234 242 228
218 214 223 211 246 234 254 269 279 157 322 202 288 250 123 122 114 112 126 149 211 220 183 214 195 205 197 212 188 198 186 196 208 205 214 218 220 221 231 233 231 230 235 252
224 227 212 219 200 243 227 251 252 174 247 253 178 329 226 123 123 125 115 119 115 152 81 124 217 165 155 198 193 204 205 207 217 210 216 224 224 235 229 238 238 240 232 239
238 237 223 206 223 232 245 244 292 242 241 314 18 355 290 173 135 129 128 117 107 100 110 137 152 120 153 171 173 180 194 214 232 224 213 209 245 236 237 241 247 248 270 254
251 245 204 191 205 218 211 235 259 221 193 254 250 215 239 150 159 144 131 130 129 129 122 124 127 133 140 110 104 130 99 63 38 62 76 59 250 352 9 318 317 286 230 282
233 226 229 202 208 220 238 254 239 243 228 264 309 116 82 85 126 135 121 127 123 126 127 133 133 130 104 87 73 69 88 104 106 114 111 106 136 225 254 253 235 281 9 248
219 245 230 191 200 207 217 232 253 268 278 230 182 71 131 139 130 132 133 129 131 130 141 129 122 120 113 98 105 108 101 88 86 92 90 86 64 32 358 284 272 277 248 245
216 238 253 191 205 202 203 233 269 251 267 280 69 358 310 148 145 144 142 143 143 148 147 128 120 113 128 126 132 120 96 82 98 105 103 101 80 98 107 64 78 279 300 253
225 239 250 263 66 215 184 262 226 237 281 296 158 220 215 164 163 153 152 153 153 154 151 146 139 137 151 152 149 153 121 101 145 120 59 65 124 124 67 63 69 74 121 151
219 242 240 255 217 218 248 253 244 223 250 287 321 289 95 123 141 152 160 158 158 157 145 138 136 142 159 166 173 160 54 238 163 115 73 70 79 84 65 66 73 80 82 62
226 228 232 243 231 228 228 249 246 238 238 276 295 67 94 129 151 165 163 165 160 158 144 142 136 128 131 148 132 114 122 125 115 108 83 71 71 63 54 53 63 61 49 22
213 220 222 231 220 227 243 232 356 260 220 270 315 132 187 152 163 163 160 162 160 149 149 147 137 130 133 130 114 115 111 113 111 101 79 56 55 47 37 36 32 23 4 337
224 221 229 214 229 241 236 193 230 217 271 255 190 120 147 150 140 155 158 157 159 152 149 149 137 128 119 121 126 120 119 116 114 107 87 59 51 43 23 14 7 355 348 339
239 220 223 231 245 261 236 213 185 225 240 131 174 131 162 154 192 175 163 152 147 150 146 137 130 138 132 135 140 146 140 131 98 71 59 45 40 43 19 5 357 351 346 344
215 237 219 238 338 257 84 353 213 219 109 114 155 137 164 197 57 124 150 136 146 142 136 135 144 135 124 141 145 144 138 107 91 64 51 45 22 353 33 360 351 346 339 329
189 199 227 236 203 290 340 169 227 100 126 125 120 127 154 108 124 135 141 145 131 133 136 136 125 123 115 118 141 135 106 101 92 26 21 15 9 357 348 339 331 323 311 306
283 1 355 346 29 175 164 259 126 143 121 132 127 133 122 135 140 141 141 141 139 145 136 134 127 122 109 93 76 132 113 66 339 332 344 337 335 329 333 320 317 307 307 310
220 4 290 45 71 215 149 101 131 168 134 136 124 119 150 150 148 146 146 143 139 135 136 134 136 127 112 93 82 96 106 93 299 322 316 309 308 306 306 309 305 310 313 316
41 313 334 255 205 207 171 137 149 115 126 120 122 142 151 147 148 148 146 142 139 137 133 135 134 137 124 113 99 90 79 5 320 313 308 303 295 298 308 291 303 304 301 301
224 234 304 341 82 55 115 142 147 146 134 138 145 141 141 149 147 147 143 141 140 140 136 138 138 141 138 141 127 96 29 357 332 314 303 322 311 302 305 308 308 306 298 296